Location: Damada
(14.7329°N, 3.1761°W)
Time: 17:01:40
(UTC+00:00)

Cosmos 2082 Rocket - Pass Details

Date: 18 February 2020
Orbit: 833 x 854 km, 71.0° (Epoch: 29 March)

Event Time Altitude Azimuth Distance (km) Brightness Sun altitude
Rises 19:42:31 0° 330° (NNW) 3,390 5.6 -21.0°
Reaches altitude 10° 19:45:06 10° 323° (NW) 2,458 5.0 -21.7°
Maximum altitude 19:50:16 38° 256° (WSW) 1,260 3.6 -22.9°
Drops below altitude 10° 19:55:29 10° 189° (S) 2,467 4.8 -24.2°
Sets 19:58:06 0° 181° (S) 3,404 5.4 -24.8°
